Temp
-5 -5 -5 -5 -5 -5 -5 -6 -6 -6 -6 -6 -6 -5 -5 -5 -5 -4 -4 -4 -4 -3 -4 -4 -3 -4 -4 -4 -5 -5 -5 -5 -5 -5 -6 -6 -6 -6 -5 -5 -6 -6 -6 -6 -7 -7 -7 -7 -7
-6 -6 -6 -6 -6 -5 -5 -5 -5 -5 -5 -5 -5 -5 -5 -5 -4 -4 -4 -4 -4 -3 -3 -4 -4 -4 -4 -4 -5 -5 -5 -5 -5 -6 -6 -6 -6 -6 -5 -6 -6 -6 -6 -6 -7 -7 -7 -7 -7
-6 -6 -6 -6 -7 -5 -5 -6 -6 -6 -5 -4 -4 -4 -5 -4 -4 -4 -4 -4 -4 -3 -3 -3 -4 -4 -4 -4 -5 -5 -5 -5 -5 -5 -5 -6 -6 -6 -6 -6 -6 -6 -6 -6 -6 -6 -6 -7 -8
-6 -6 -6 -6 -5 -5 -6 -6 -5 -5 -5 -5 -5 -4 -4 -5 -4 -4 -4 -4 -4 -4 -4 -4 -4 -4 -4 -4 -5 -5 -5 -5 -5 -5 -5 -6 -6 -6 -6 -6 -6 -6 -6 -7 -6 -6 -6 -6 -7
-6 -6 -5 -5 -5 -5 -5 -6 -5 -5 -5 -5 -5 -4 -4 -4 -4 -4 -4 -4 -5 -4 -4 -4 -4 -4 -4 -5 -5 -5 -5 -5 -5 -6 -6 -6 -6 -6 -6 -6 -7 -7 -7 -7 -6 -6 -6 -6 -6
-5 -5 -5 -5 -6 -6 -5 -5 -5 -6 -5 -5 -5 -4 -4 -4 -4 -4 -4 -4 -4 -4 -4 -4 -4 -4 -5 -5 -5 -6 -5 -6 -6 -6 -6 -6 -6 -6 -6 -7 -7 -7 -7 -7 -7 -7 -7 -6 -6
-5 -5 -4 -4 -5 -5 -5 -5 -5 -5 -5 -5 -5 -5 -5 -4 -4 -4 -4 -4 -4 -4 -4 -4 -5 -5 -5 -5 -5 -6 -5 -5 -6 -6 -6 -6 -6 -6 -6 -6 -7 -7 -7 -7 -7 -7 -7 -6 -6
-4 -5 -4 -5 -6 -5 -5 -6 -6 -5 -4 -4 -5 -5 -5 -4 -4 -4 -4 -4 -4 -4 -4 -4 -5 -5 -5 -5 -5 -5 -5 -6 -6 -6 -6 -6 -6 -6 -6 -7 -7 -7 -7 -7 -7 -7 -7 -6 -6
-5 -5 -4 -5 -6 -6 -5 -5 -5 -5 -4 -4 -4 -5 -5 -4 -4 -4 -4 -4 -4 -4 -4 -4 -5 -5 -5 -5 -5 -5 -5 -5 -5 -6 -6 -6 -6 -6 -6 -6 -7 -6 -7 -7 -7 -7 -7 -7 -7
-5 -4 -5 -6 -6 -6 -5 -5 -4 -4 -4 -4 -3 -4 -5 -4 -3 -4 -4 -4 -4 -4 -4 -5 -5 -6 -6 -6 -6 -6 -6 -6 -6 -6 -6 -6 -6 -6 -6 -6 -6 -7 -6 -7 -7 -7 -7 -7 -7
-4 -5 -5 -6 -6 -6 -5 -5 -4 -4 -3 -3 -3 -3 -4 -4 -4 -3 -4 -4 -4 -4 -4 -5 -5 -5 -5 -6 -6 -6 -6 -6 -6 -6 -6 -6 -6 -6 -6 -6 -6 -6 -6 -6 -6 -7 -7 -7 -7
-4 -4 -4 -4 -5 -6 -5 -5 -4 -4 -4 -4 -3 -3 -4 -4 -4 -4 -4 -4 -4 -4 -4 -5 -5 -5 -5 -5 -6 -6 -6 -6 -6 -6 -6 -6 -6 -6 -6 -6 -6 -6 -6 -6 -6 -6 -7 -7 -7
-4 -4 -4 -5 -5 -6 -5 -5 -5 -4 -4 -4 -3 -3 -3 -4 -4 -4 -4 -4 -4 -4 -5 -5 -5 -5 -5 -5 -5 -6 -6 -6 -6 -6 -6 -6 -6 -6 -6 -6 -6 -6 -6 -6 -6 -7 -7 -7 -7
-4 -3 -5 -5 -4 -5 -5 -5 -5 -4 -4 -4 -3 -3 -3 -3 -4 -4 -4 -4 -4 -4 -4 -5 -5 -5 -5 -5 -5 -5 -5 -6 -6 -6 -6 -6 -6 -6 -6 -6 -6 -6 -6 -6 -6 -6 -6 -6 -7
-4 -4 -4 -5 -5 -4 -5 -5 -5 -4 -4 -4 -4 -4 -4 -4 -4 -4 -4 -4 -4 -4 -4 -4 -4 -4 -4 -5 -5 -5 -5 -5 -6 -5 -5 -5 -6 -6 -6 -6 -6 -6 -6 -6 -6 -6 -6 -6 -6
-4 -5 -5 -5 -4 -5 -4 -4 -4 -4 -4 -4 -4 -4 -4 -5 -4 -4 -4 -4 -5 -5 -5 -5 -4 -4 -5 -5 -5 -4 -5 -5 -5 -5 -5 -5 -5 -5 -6 -6 -6 -6 -6 -6 -6 -6 -6 -7 -7
-4 -5 -4 -4 -4 -4 -4 -3 -3 -3 -3 -4 -4 -4 -4 -4 -4 -4 -4 -4 -4 -4 -5 -5 -5 -5 -5 -5 -5 -5 -5 -5 -5 -5 -5 -5 -5 -5 -5 -6 -6 -6 -6 -6 -6 -6 -6 -6 -7
-6 -5 -4 -4 -5 -4 -4 -4 -4 -4 -4 -4 -4 -4 -4 -4 -4 -4 -4 -4 -4 -5 -5 -5 -5 -5 -4 -4 -4 -4 -5 -5 -5 -4 -4 -5 -5 -5 -5 -5 -5 -5 -6 -6 -6 -6 -6 -6 -6
-5 -5 -4 -5 -5 -4 -5 -4 -4 -4 -4 -4 -4 -4 -3 -4 -4 -4 -4 -4 -4 -4 -4 -5 -5 -4 -4 -4 -4 -4 -4 -4 -4 -4 -5 -5 -5 -4 -5 -5 -5 -5 -6 -6 -6 -6 -6 -6 -6
-4 -4 -4 -5 -5 -4 -5 -5 -5 -4 -4 -4 -4 -4 -4 -4 -4 -5 -5 -5 -4 -4 -4 -4 -4 -4 -4 -4 -4 -4 -4 -4 -4 -4 -5 -5 -5 -5 -5 -5 -6 -6 -6 -6 -6 -6 -6 -6 -6
-5 -5 -5 -4 -5 -5 -5 -5 -6 -5 -5 -4 -4 -4 -4 -4 -5 -5 -5 -5 -5 -5 -5 -4 -4 -4 -4 -4 -4 -4 -5 -5 -5 -5 -5 -5 -5 -5 -5 -5 -6 -6 -6 -6 -6 -7 -6 -6 -6
-6 -5 -4 -5 -5 -5 -4 -5 -5 -5 -5 -5 -4 -4 -5 -6 -6 -6 -6 -6 -6 -6 -6 -6 -5 -5 -5 -5 -5 -5 -5 -5 -5 -6 -6 -6 -6 -6 -6 -6 -6 -6 -7 -7 -7 -7 -7 -6 -7
-6 -5 -6 -5 -5 -5 -4 -5 -4 -4 -5 -4 -4 -4 -4 -4 -5 -5 -6 -6 -7 -6 -6 -6 -6 -6 -6 -6 -6 -7 -7 -6 -7 -7 -6 -6 -7 -8 -7 -7 -7 -7 -7 -7 -7 -7 -7 -7 -7
-5 -6 -6 -6 -6 -5 -5 -5 -5 -4 -4 -5 -5 -4 -5 -5 -5 -5 -5 -6 -6 -6 -6 -6 -7 -7 -7 -7 -7 -7 -7 -7 -6 -6 -6 -7 -7 -7 -8 -8 -8 -7 -7 -7 -7 -7 -7 -7 -7
-5 -5 -6 -6 -6 -5 -5 -5 -5 -5 -5 -5 -5 -5 -5 -5 -5 -5 -5 -6 -6 -6 -5 -6 -6 -6 -6 -7 -7 -7 -6 -7 -8 -7 -7 -7 -7 -7 -8 -8 -8 -7 -7 -7 -7 -7 -7 -7 -7
-5 -6 -6 -5 -5 -5 -5 -5 -5 -5 -5 -4 -5 -5 -5 -6 -6 -6 -6 -5 -6 -6 -6 -6 -6 -6 -6 -6 -7 -7 -7 -7 -7 -8 -8 -8 -9 -8 -10 -9 -10 -9 -7 -6 -6 -7 -7 -8 -8
-6 -6 -5 -5 -5 -5 -5 -5 -5 -4 -4 -4 -6 -6 -6 -6 -7 -7 -7 -7 -7 -7 -7 -6 -6 -7 -7 -7 -7 -7 -7 -8 -9 -7 -8 -8 -9 -9 -8 -9 -9 -8 -8 -7 -6 -6 -7 -7 -7
-5 -5 -5 -5 -5 -5 -5 -5 -5 -5 -4 -5 -6 -6 -6 -7 -7 -7 -7 -7 -7 -7 -6 -6 -6 -6 -6 -6 -6 -6 -6 -6 -7 -8 -7 -7 -8 -7 -9 -9 -10 -9 -8 -8 -8 -7 -7 -7 -7
-5 -5 -5 -5 -5 -5 -5 -5 -5 -6 -6 -6 -7 -7 -7 -7 -7 -7 -7 -7 -7 -6 -6 -6 -6 -6 -6 -6 -6 -6 -7 -8 -9 -7 -8 -7 -7 -8 -9 -10 -10 -10 -9 -9 -9 -8 -8 -7 -8
-6 -5 -5 -5 -5 -5 -5 -6 -6 -6 -6 -7 -7 -7 -7 -7 -7 -7 -7 -7 -7 -7 -7 -7 -7 -6 -6 -6 -6 -7 -7 -7 -7 -8 -8 -8 -7 -9 -9 -10 -11 -9 -9 -11 -9 -8 -8 -8 -8
Height
5890 5891 5892 5892 5892 5890 5891 5894 5893 5895 5897 5898 5897 5899 5899 5897 5898 5902 5899 5900 5901 5902 5901 5901 5902 5903 5902 5903 5904 5904 5904 5904 5903 5902 5903 5902 5900 5899 5898 5898 5898 5897 5896 5897 5896 5896 5896 5895 5894
5893 5893 5896 5894 5894 5895 5896 5897 5897 5899 5899 5899 5898 5899 5899 5901 5902 5900 5900 5900 5902 5902 5903 5904 5904 5904 5904 5906 5906 5906 5906 5906 5906 5905 5905 5905 5904 5903 5902 5902 5901 5899 5899 5899 5901 5901 5901 5899 5898
5896 5895 5898 5897 5898 5900 5901 5901 5900 5901 5902 5902 5901 5901 5901 5903 5902 5902 5901 5902 5904 5904 5905 5905 5906 5906 5906 5907 5907 5908 5908 5908 5908 5908 5908 5908 5907 5906 5905 5905 5904 5901 5901 5901 5902 5904 5904 5904 5903
5902 5902 5902 5903 5903 5904 5904 5906 5905 5905 5905 5904 5903 5903 5905 5905 5906 5905 5904 5905 5906 5906 5907 5907 5907 5908 5908 5908 5909 5909 5910 5910 5909 5909 5910 5910 5909 5908 5907 5906 5906 5905 5904 5904 5903 5904 5905 5905 5905
5906 5907 5907 5906 5906 5907 5907 5908 5908 5908 5908 5907 5908 5908 5908 5907 5909 5907 5907 5906 5908 5908 5908 5909 5908 5909 5908 5908 5909 5910 5910 5910 5910 5909 5910 5910 5910 5910 5909 5909 5908 5907 5905 5905 5905 5905 5905 5906 5906
5910 5912 5912 5911 5909 5911 5911 5910 5910 5911 5911 5910 5910 5909 5911 5911 5911 5910 5909 5909 5909 5910 5910 5910 5911 5910 5910 5910 5911 5912 5912 5912 5912 5911 5911 5911 5911 5911 5911 5911 5910 5909 5907 5906 5907 5906 5906 5906 5907
5913 5912 5914 5913 5912 5914 5914 5914 5913 5914 5914 5913 5913 5912 5912 5913 5912 5911 5911 5912 5911 5911 5911 5911 5911 5912 5913 5914 5914 5914 5914 5914 5913 5913 5913 5913 5912 5912 5912 5912 5911 5910 5909 5909 5909 5908 5907 5905 5907
5916 5917 5915 5913 5913 5917 5917 5915 5916 5917 5917 5917 5916 5915 5914 5914 5915 5914 5914 5914 5914 5913 5912 5912 5912 5914 5914 5916 5916 5916 5916 5915 5915 5916 5915 5915 5914 5914 5913 5912 5911 5911 5911 5911 5910 5909 5908 5905 5906
5917 5917 5917 5916 5915 5917 5920 5919 5919 5918 5918 5918 5918 5918 5916 5916 5916 5916 5916 5916 5916 5915 5914 5914 5914 5915 5915 5916 5917 5917 5917 5917 5917 5917 5917 5917 5916 5915 5914 5913 5912 5911 5911 5911 5910 5909 5908 5906 5905
5920 5919 5919 5918 5918 5918 5919 5920 5919 5919 5920 5921 5920 5920 5918 5916 5917 5917 5918 5918 5918 5916 5916 5915 5915 5915 5916 5916 5917 5918 5918 5918 5918 5918 5917 5917 5916 5916 5915 5914 5913 5912 5911 5910 5911 5910 5908 5907 5905
5922 5920 5920 5919 5917 5920 5921 5920 5921 5920 5920 5920 5920 5921 5919 5918 5916 5917 5918 5918 5918 5917 5918 5917 5917 5917 5917 5917 5918 5918 5918 5918 5918 5918 5918 5917 5917 5916 5916 5914 5913 5913 5912 5911 5911 5911 5909 5909 5909
5924 5923 5921 5920 5919 5918 5921 5921 5921 5919 5920 5919 5919 5921 5922 5920 5919 5918 5919 5919 5919 5918 5919 5919 5919 5918 5918 5918 5918 5918 5918 5918 5918 5918 5918 5918 5917 5916 5916 5915 5914 5913 5913 5913 5911 5911 5910 5910 5910
5926 5924 5921 5921 5919 5921 5922 5923 5922 5921 5920 5920 5920 5920 5921 5921 5920 5919 5920 5921 5921 5921 5919 5919 5919 5918 5917 5917 5917 5917 5918 5917 5918 5918 5918 5917 5916 5915 5915 5915 5914 5913 5912 5911 5912 5911 5910 5909 5909
5926 5927 5925 5921 5922 5923 5923 5924 5924 5924 5924 5924 5922 5921 5921 5922 5921 5920 5920 5920 5922 5922 5920 5919 5919 5918 5918 5918 5917 5917 5916 5916 5915 5916 5917 5916 5915 5914 5914 5914 5913 5913 5912 5911 5911 5910 5909 5908 5907
5930 5928 5926 5924 5924 5925 5926 5926 5925 5927 5926 5926 5924 5923 5921 5920 5921 5922 5922 5920 5919 5920 5919 5918 5918 5918 5918 5918 5918 5917 5916 5916 5916 5915 5915 5915 5914 5913 5913 5913 5912 5912 5912 5911 5911 5910 5908 5906 5906
5928 5928 5926 5925 5925 5925 5927 5926 5926 5926 5926 5925 5923 5923 5924 5924 5924 5924 5925 5922 5921 5920 5919 5918 5918 5918 5918 5918 5918 5917 5917 5918 5918 5917 5916 5915 5914 5913 5912 5912 5912 5911 5910 5909 5909 5908 5907 5905 5903
5928 5928 5928 5929 5928 5927 5928 5929 5928 5926 5926 5925 5926 5926 5925 5925 5926 5927 5926 5924 5923 5923 5922 5921 5921 5921 5920 5920 5921 5920 5920 5918 5917 5917 5916 5915 5914 5913 5912 5911 5911 5909 5908 5907 5907 5907 5906 5903 5901
5929 5929 5930 5930 5931 5930 5931 5931 5930 5929 5928 5928 5928 5928 5927 5926 5927 5928 5928 5927 5926 5927 5926 5926 5926 5925 5924 5924 5923 5921 5919 5918 5916 5916 5915 5914 5913 5912 5910 5909 5907 5906 5906 5906 5905 5904 5903 5902 5900
5929 5932 5934 5933 5933 5933 5934 5932 5931 5931 5931 5930 5930 5930 5929 5928 5928 5929 5928 5927 5927 5927 5927 5927 5928 5928 5927 5927 5925 5923 5921 5919 5917 5914 5911 5911 5910 5909 5907 5905 5902 5900 5899 5898 5898 5899 5899 5898 5897
5933 5936 5937 5935 5936 5936 5935 5936 5933 5933 5933 5933 5932 5932 5930 5929 5928 5928 5927 5927 5927 5927 5928 5927 5927 5926 5925 5924 5924 5922 5919 5918 5917 5913 5911 5909 5907 5904 5902 5900 5898 5896 5896 5895 5893 5892 5893 5893 5892
5936 5937 5938 5936 5936 5937 5937 5937 5936 5935 5935 5935 5933 5932 5930 5928 5927 5928 5928 5928 5927 5927 5927 5927 5926 5925 5924 5922 5919 5917 5917 5915 5914 5913 5911 5908 5906 5903 5901 5899 5897 5894 5892 5890 5889 5887 5885 5885 5885
5934 5936 5937 5936 5936 5937 5938 5939 5939 5937 5938 5937 5934 5932 5929 5928 5928 5928 5928 5927 5927 5927 5927 5926 5924 5925 5923 5921 5920 5917 5913 5911 5909 5907 5906 5904 5902 5901 5898 5896 5893 5890 5887 5885 5883 5880 5879 5878 5877
5933 5934 5936 5936 5937 5938 5939 5940 5940 5939 5938 5938 5936 5933 5932 5931 5930 5928 5928 5928 5927 5926 5924 5923 5922 5921 5920 5918 5916 5915 5915 5912 5908 5906 5904 5901 5899 5895 5894 5892 5889 5885 5881 5879 5877 5875 5872 5871 5869
5934 5933 5934 5936 5937 5938 5939 5939 5940 5939 5939 5937 5936 5933 5931 5930 5930 5929 5928 5928 5927 5925 5923 5921 5920 5919 5918 5916 5914 5913 5911 5908 5906 5903 5901 5896 5894 5892 5887 5884 5882 5880 5877 5873 5870 5869 5866 5863 5862
5936 5935 5936 5938 5937 5938 5936 5936 5937 5938 5936 5935 5933 5932 5929 5929 5929 5929 5928 5926 5924 5923 5923 5921 5919 5918 5914 5912 5911 5909 5906 5902 5899 5895 5891 5889 5885 5883 5880 5877 5872 5868 5866 5865 5863 5861 5858 5856 5852
5933 5935 5935 5935 5935 5936 5935 5935 5935 5934 5932 5932 5929 5930 5928 5928 5928 5927 5926 5926 5925 5922 5919 5917 5914 5913 5913 5909 5905 5902 5898 5894 5890 5886 5880 5874 5873 5870 5868 5864 5861 5858 5855 5853 5855 5853 5850 5847 5843
5933 5934 5935 5933 5934 5933 5934 5933 5933 5930 5929 5928 5926 5927 5927 5926 5926 5925 5924 5923 5922 5921 5919 5914 5910 5908 5905 5903 5901 5896 5890 5883 5881 5869 5850 5863 5855 5856 5856 5853 5849 5846 5844 5842 5842 5841 5838 5835 5831
5932 5934 5934 5932 5932 5931 5931 5930 5930 5928 5927 5925 5925 5926 5925 5925 5925 5923 5922 5920 5917 5914 5911 5909 5906 5901 5897 5892 5890 5884 5878 5871 5863 5834 5824 5851 5847 5837 5840 5837 5836 5834 5833 5831 5830 5827 5824 5823 5820
5931 5931 5932 5931 5930 5929 5928 5928 5926 5925 5922 5923 5923 5923 5922 5922 5922 5920 5917 5914 5911 5908 5904 5900 5897 5894 5888 5883 5877 5870 5866 5858 5848 5836 5834 5837 5832 5820 5818 5821 5821 5821 5824 5819 5815 5812 5811 5808 5805
5928 5928 5929 5929 5929 5927 5926 5927 5925 5922 5922 5922 5921 5921 5919 5918 5917 5915 5912 5908 5904 5899 5896 5892 5887 5882 5876 5872 5863 5857 5854 5846 5841 5835 5832 5825 5821 5813 5807 5811 5806 5809 5809 5806 5802 5799 5797 5793 5790
Wind_Speed
22 21 24 24 24 24 27 20 17 19 18 13 11 9 11 9 8 9 11 11 10 9 9 7 4 6 10 13 12 13 12 11 11 11 9 11 12 11 12 12 13 14 15 15 14 12 13 14 11
21 19 18 21 23 21 20 20 21 17 15 11 14 12 13 13 9 9 11 11 8 7 7 5 5 5 8 11 12 12 11 10 11 11 10 11 11 10 11 12 14 15 15 15 15 14 12 11 11
20 19 16 16 17 19 19 17 15 13 13 13 15 14 14 11 11 10 12 11 8 8 6 5 6 5 8 9 11 11 10 9 10 11 11 9 9 9 9 10 12 14 16 15 14 14 15 11 10
18 17 13 13 17 18 17 18 12 12 9 10 12 12 12 11 10 12 10 10 8 8 7 5 6 8 9 10 10 10 10 11 11 12 11 11 9 9 9 8 11 14 16 16 14 13 11 12 10
13 13 12 15 18 18 16 14 14 11 9 8 6 8 10 9 10 10 10 9 5 5 6 6 8 8 8 9 10 10 10 11 11 11 10 10 10 9 8 9 11 13 14 15 13 12 12 9 9
15 14 14 20 18 15 14 13 15 13 9 8 4 7 9 9 9 9 10 8 6 3 4 4 5 6 7 8 9 9 9 10 9 10 9 9 9 9 9 9 8 8 11 13 11 12 12 9 8
13 15 15 22 24 19 18 16 17 11 11 10 6 3 4 8 8 7 8 6 5 4 4 3 4 4 6 6 7 7 7 7 7 9 7 7 7 8 9 8 8 8 9 13 12 12 15 10 6
15 11 9 18 15 14 16 16 11 7 13 12 10 6 2 8 10 7 8 6 6 5 4 4 3 3 4 5 4 5 5 5 7 7 8 8 7 7 7 8 8 8 9 9 9 10 16 11 5
8 8 9 13 12 8 13 11 9 7 9 9 10 9 4 5 9 7 8 6 6 7 7 5 5 5 4 4 5 5 5 7 7 7 7 7 8 9 10 8 7 8 8 8 9 13 14 15 8
8 9 12 13 9 8 9 7 6 7 6 4 6 7 5 4 6 7 5 5 7 8 8 7 6 6 6 5 5 4 4 6 6 7 7 7 8 8 9 10 9 8 8 9 8 9 13 17 10
7 12 11 10 14 8 13 10 6 8 5 7 9 10 5 3 3 6 5 4 6 7 7 8 8 7 7 6 6 5 3 4 3 3 4 5 5 6 7 7 8 8 7 7 8 7 7 10 9
8 9 10 13 15 12 16 14 11 11 10 7 5 9 8 5 5 3 4 4 5 4 5 7 6 8 7 7 5 5 3 2 3 2 3 3 4 5 7 7 8 7 7 8 8 7 6 6 7
10 5 1 8 5 13 13 12 11 13 11 9 6 7 9 7 6 4 3 5 4 4 4 5 5 5 6 5 4 4 3 2 1 2 3 3 5 6 6 6 6 7 7 7 7 7 5 6 6
8 6 5 5 5 14 15 8 11 14 15 12 12 10 10 9 7 5 1 2 2 3 3 3 3 4 4 3 2 1 2 2 0 2 1 2 2 3 4 4 4 5 5 8 7 6 6 5 4
12 9 10 12 12 11 10 12 13 12 13 12 15 16 14 13 10 7 4 2 2 3 4 5 5 6 7 5 5 7 7 6 5 5 3 4 5 6 7 7 7 8 8 8 9 8 9 10 8
12 12 13 11 12 18 16 13 9 10 10 9 9 11 10 11 9 8 7 7 4 4 4 5 6 7 6 5 7 9 9 9 9 8 6 7 7 7 7 8 7 7 9 10 10 11 11 11 13
15 16 12 15 18 20 19 17 16 15 13 12 10 12 13 13 9 7 5 7 8 8 5 4 6 6 7 6 6 6 6 6 5 4 3 4 4 3 4 4 5 6 9 10 10 10 10 12 13
20 18 16 20 21 20 18 17 15 14 14 15 14 13 13 14 13 11 9 11 13 15 14 12 8 7 6 4 4 4 3 3 5 6 7 7 7 6 7 8 9 9 10 10 11 11 11 12 10
22 19 16 20 17 17 14 16 13 10 11 14 13 12 10 9 10 9 7 7 7 8 9 7 5 4 5 6 5 5 6 5 4 6 6 8 9 11 12 13 14 14 15 16 16 15 14 13 14
18 22 19 20 19 17 17 15 9 9 8 9 12 8 8 9 6 4 5 3 1 2 1 2 1 2 3 4 8 8 8 7 8 9 11 13 15 16 18 20 20 19 19 20 20 19 18 18 17
13 16 14 19 18 14 11 13 12 9 9 9 12 11 9 7 3 2 4 5 5 4 4 5 6 7 9 10 9 8 9 10 13 14 16 17 19 19 20 22 23 22 22 23 23 22 23 21 21
12 12 17 16 15 11 12 12 15 10 10 5 10 13 16 13 11 11 10 10 13 7 5 7 8 10 13 16 16 14 13 15 15 17 18 18 19 23 24 25 26 27 27 27 27 28 25 24 23
12 11 16 14 11 10 9 9 9 10 9 5 9 7 13 17 16 15 16 13 10 8 7 6 10 11 16 20 15 18 23 22 19 18 21 23 22 22 25 28 30 30 30 30 31 31 31 29 27
18 16 10 6 8 3 4 4 8 3 9 4 5 11 17 16 15 14 14 14 12 14 5 7 7 12 24 23 25 28 30 29 28 26 24 24 26 29 27 29 31 32 30 30 31 32 35 37 36
14 12 9 3 1 3 7 8 3 7 5 9 7 15 16 16 15 16 16 16 20 20 9 15 22 21 27 31 31 32 33 34 35 36 32 28 27 29 29 30 33 32 32 33 34 35 35 37 40
12 6 1 3 7 5 5 8 2 4 5 8 8 14 15 15 16 19 21 18 20 23 24 27 29 29 27 32 35 38 40 41 42 40 40 35 33 34 34 37 35 35 34 36 38 36 35 38 42
9 5 3 5 6 6 6 10 5 10 10 13 12 11 14 12 16 23 26 27 23 23 24 29 32 33 35 35 36 38 42 45 43 51 53 36 32 35 40 38 43 40 39 40 39 42 43 43 43
13 9 4 8 9 8 9 12 18 15 20 22 18 16 12 16 21 26 27 29 28 29 32 30 30 35 39 41 41 44 50 52 57 73 29 43 45 39 40 38 50 48 41 44 41 44 44 45 45
16 14 10 12 14 14 17 21 17 17 20 18 15 18 24 25 28 31 33 34 34 34 35 35 38 39 39 42 45 47 43 52 53 53 50 36 37 52 34 41 40 50 50 42 48 51 47 44 45
12 14 17 18 21 20 20 19 20 22 23 16 15 23 24 27 28 30 36 37 40 43 44 45 45 44 45 45 40 31 40 45 45 46 48 42 44 45 46 53 49 45 43 47 52 52 51 48 50
Wind_Direction
112 94 89 83 75 80 92 92 95 105 96 106 106 92 93 86 95 115 116 124 125 132 128 126 112 77 77 69 74 70 67 61 65 71 73 70 66 74 72 66 65 64 70 75 74 72 69 73 75
102 103 92 92 86 83 79 92 94 90 99 100 108 103 90 99 101 95 90 98 95 104 117 112 114 91 78 71 75 71 69 63 65 67 76 75 71 69 64 58 59 59 61 70 85 87 82 74 75
106 95 88 83 90 94 84 80 73 77 84 96 89 88 90 83 87 93 95 97 102 98 95 101 99 98 80 73 77 74 73 80 72 76 72 83 75 69 63 53 51 46 49 49 59 78 97 99 99
99 98 94 109 104 99 99 105 102 90 73 60 69 75 78 73 74 76 91 110 120 106 91 91 93 91 82 75 76 76 73 72 70 67 66 66 71 65 66 52 50 51 49 51 52 56 69 98 105
95 100 111 112 96 88 90 96 91 90 75 56 58 84 78 80 72 74 71 76 77 80 85 82 86 88 84 79 78 80 76 77 70 63 60 64 61 64 67 60 55 57 44 40 40 43 44 57 87
111 105 112 108 93 104 99 92 84 81 85 88 73 72 68 88 86 87 85 89 101 102 89 89 91 89 83 85 80 79 69 66 71 66 56 61 62 62 58 59 51 37 24 20 39 28 18 26 57
107 98 106 98 103 96 92 88 79 83 84 85 99 109 67 82 89 83 89 73 73 84 98 99 86 72 68 84 88 77 63 61 67 66 63 66 65 62 57 56 45 33 31 44 34 29 21 358 40
106 117 100 92 75 79 96 96 98 83 91 94 105 124 148 99 105 103 92 71 55 70 92 98 89 81 74 69 79 83 71 60 57 50 50 55 50 53 59 53 42 33 32 31 35 24 23 19 99
117 119 97 85 91 71 88 104 121 118 97 95 97 103 128 95 111 108 108 104 82 80 83 102 131 135 130 110 82 79 85 70 63 56 49 61 58 47 50 52 43 31 20 24 34 29 27 34 112
115 102 80 67 36 31 63 68 107 104 105 112 105 105 91 62 91 106 106 96 84 79 75 89 113 124 126 121 106 89 89 83 71 62 47 34 37 47 41 41 48 42 24 12 16 19 24 30 94
108 107 86 74 68 72 91 88 101 83 91 78 70 96 120 128 67 91 101 97 95 88 80 81 91 111 123 127 132 118 92 76 60 43 30 17 10 17 29 24 23 19 17 16 19 14 19 23 54
143 113 139 85 56 56 75 76 74 72 50 50 57 80 111 142 124 88 97 114 109 92 84 82 80 91 97 103 109 112 114 88 65 40 25 13 2 4 16 4 3 1 357 358 4 16 12 7 5
128 100 23 141 58 59 81 66 63 63 63 45 63 68 94 115 124 129 129 135 147 157 134 114 108 98 91 89 95 104 121 94 48 10 350 3 352 354 2 7 2 355 350 355 357 351 348 339 333
115 101 84 96 215 58 68 61 68 70 66 66 66 65 74 91 103 111 220 76 81 88 88 80 84 97 99 88 94 86 81 99 355 351 8 61 33 22 26 25 8 353 340 336 341 334 325 316 304
121 121 105 102 83 117 84 80 78 75 74 77 82 76 67 59 61 89 128 98 20 38 52 52 53 75 86 86 76 72 77 111 124 118 92 73 51 22 13 10 355 337 331 333 334 334 325 310 298
138 127 100 87 71 75 70 71 67 64 61 58 73 86 85 84 80 89 105 100 103 80 65 84 87 74 72 66 69 61 53 66 71 70 65 62 58 39 25 18 16 3 356 356 351 345 337 314 312
130 140 101 77 75 73 72 72 67 71 70 68 67 72 76 81 69 59 58 88 85 74 60 106 100 64 66 68 63 51 36 20 15 22 17 17 16 3 348 336 334 342 347 343 345 347 341 348 320
122 113 105 90 79 74 74 75 63 69 76 86 86 82 83 85 74 61 61 75 73 72 73 75 73 58 63 53 36 22 8 352 334 333 344 345 336 332 317 311 310 311 311 311 315 323 329 328 315
114 123 117 108 100 92 80 63 67 70 89 91 86 79 69 76 75 67 67 75 86 92 99 96 71 33 18 354 338 329 317 303 294 307 318 314 310 311 311 309 310 311 312 310 309 307 309 310 308
118 111 98 107 117 102 94 73 57 89 115 100 82 59 56 50 53 81 79 56 49 88 86 94 33 346 334 334 329 330 319 309 304 302 296 298 303 307 308 309 308 307 306 304 301 302 305 302 300
124 113 108 106 132 136 107 85 69 122 137 112 49 45 46 37 16 14 44 7 331 316 296 294 291 292 298 299 293 298 306 300 296 297 292 291 295 295 294 295 298 299 296 297 295 295 294 296 297
141 118 123 110 96 98 125 113 90 107 124 64 45 43 45 43 50 47 40 7 16 343 323 344 308 329 334 328 319 303 290 292 292 290 292 294 297 299 298 298 295 295 296 296 295 297 294 291 289
137 109 95 63 85 102 110 107 86 116 167 136 28 15 52 65 64 62 56 54 63 31 358 342 5 352 350 346 333 329 321 309 301 298 298 297 292 287 289 290 288 287 287 290 294 294 295 294 289
119 115 82 65 35 137 44 97 116 52 158 155 62 42 54 51 52 64 49 34 27 13 6 8 352 328 325 323 322 322 314 311 301 295 290 288 290 291 290 289 282 280 282 284 284 286 289 290 290
129 113 111 119 264 11 352 3 268 331 178 264 68 35 43 48 42 32 21 13 2 8 16 334 335 332 324 324 320 315 309 305 299 296 291 290 290 286 284 280 276 277 278 280 284 287 288 290 290
144 132 40 332 330 332 14 349 334 324 316 322 357 38 33 37 27 10 3 358 354 348 343 328 324 323 321 318 313 309 306 300 298 288 285 278 300 294 296 294 290 291 287 286 289 289 288 284 286
154 201 232 291 294 294 307 322 306 312 309 324 338 356 13 27 8 358 354 343 333 325 317 314 316 318 313 308 301 299 295 290 276 273 265 272 271 289 288 284 289 287 289 290 296 295 292 288 286
185 202 237 275 290 296 291 299 307 304 318 323 340 344 10 356 336 334 338 330 324 316 313 309 307 310 308 307 305 301 301 300 295 285 281 272 268 261 277 280 282 289 294 297 301 296 293 292 292
210 215 229 260 275 278 285 301 311 311 319 318 319 333 335 335 331 329 327 320 314 310 310 310 312 311 304 304 307 297 297 298 286 291 304 302 287 262 254 267 278 287 291 294 300 303 302 299 294
208 235 231 251 258 266 280 294 303 310 314 303 317 324 323 321 319 314 312 311 312 313 311 307 306 307 307 308 308 298 301 300 304 301 300 301 297 297 293 284 272 282 290 290 300 294 299 298 293